Regional Weather Roundup
Issued by NWS

Home | Current Version | Previous Version | Text Only | Print | Product List | Glossary On
Versions: 1 2 3 4 5 6 7 8 9 10 11 12 13 14 15 16 17 18 19 20 21 22 23 24 25 26 27 28 29 30 31 32 33 34 35 36 37 38 39 40 41 42 43 44 45 46 47 48 49 50
000
ASUS43 KTOP 201808
RWRKS

WEATHER ROUNDUP FOR KANSAS
NATIONAL WEATHER SERVICE GOODLAND KS
100 PM CDT SUN APR 20 2014

NOTE:  "FAIR" INDICATES FEW OR NO CLOUDS BELOW 12,000 FEET WITH NO
SIGNIFICANT WEATHER AND/OR OBSTRUCTIONS TO VISIBILITY.

KSZ001>006-013>018-027>032-041>047-201900-
NORTHWEST KANSAS

CITY           SKY/WX    TMP DP  RH WIND       PRES   REMARKS
GOODLAND       PTSUNNY   62  50  64 E5        30.01S
6HR MIN TEMP:  43; 6HR MAX TEMP:  62;

HAYS           CLOUDY    73  54  49 S20       30.00F
HILL CITY      PTSUNNY   75  51  43 S15G21    29.98F
6HR MIN TEMP:  53; 6HR MAX TEMP:  76; 6HR PCP:  0.01;

RUSSELL        CLOUDY    72  52  49 S20       29.99F
6HR MIN TEMP:  60; 6HR MAX TEMP:  75; 6HR PCP: TRACE;

$$

KSZ061>065-074>080-084>089-201900-
SOUTHWEST KANSAS

CITY           SKY/WX    TMP DP  RH WIND       PRES   REMARKS
DODGE CITY     PTSUNNY   72  52  49 S21G32    30.00F
6HR MIN TEMP:  57; 6HR MAX TEMP:  72;

ELKHART          N/A     73  48  41 SW8         N/A
GARDEN CITY    SUNNY     76  48  37 S17G28    29.97F
6HR MIN TEMP:  53; 6HR MAX TEMP:  76;

GREAT BEND     CLOUDY    64  54  68 S17       30.01F
LIBERAL        SUNNY     75  48  38 SW17G28   30.00F
PRATT          CLOUDY    63  54  72 S14       30.05F
$$

KSZ066>073-081>083-090>101-201900-
SOUTHEAST KANSAS

CITY           SKY/WX    TMP DP  RH WIND       PRES   REMARKS
CHANUTE        MOSUNNY   74  52  46 S18G26    30.10F
6HR MIN TEMP:  55; 6HR MAX TEMP:  76;

COFFEYVILLE    LGT RAIN  72  53  51 SW21G28   30.12S
6HR MIN TEMP:  56; 6HR MAX TEMP:  76; 6HR PCP: TRACE;

HUTCHINSON     LGT RAIN  64  56  75 S15       30.06S
6HR MIN TEMP:  57; 6HR MAX TEMP:  66; 6HR PCP: TRACE;

MEDICINE LODGE   N/A     62  59  90 SE7       30.05F
NEWTON         CLOUDY    70  52  52 SW16      30.09F
PARSONS        PTSUNNY   75  52  44 S13G22    30.11F
6HR MIN TEMP:  59; 6HR MAX TEMP:  76;

WICHITA INTL   CLOUDY    70  55  59 SW13      30.07F
6HR MIN TEMP:  59; 6HR MAX TEMP:  70;

WICHITA JABRA  CLOUDY    69  55  60 S16       30.07F
6HR MIN TEMP:  60; 6HR MAX TEMP:  70;

WICHITA MCCONL CLOUDY    69  58  67 S16       30.08F
WINFIELD       CLOUDY    69  57  65 SW12      30.09F
6HR MIN TEMP:  61; 6HR MAX TEMP:  72; 6HR PCP: TRACE;

$$

KSZ007>012-019>026-033>040-048>060-102>105-201900-
NORTHEAST KANSAS

CITY           SKY/WX    TMP DP  RH WIND       PRES   REMARKS
CONCORDIA      PTSUNNY   80  53  39 S17G23    29.99F
6HR MIN TEMP:  60; 6HR MAX TEMP:  80;

EMPORIA        CLOUDY    76  53  44 SW18G24   30.05F
6HR MIN TEMP:  57; 6HR MAX TEMP:  76;

LAWRENCE       PTSUNNY   78  54  43 S17G25    30.06F
6HR MIN TEMP:  54; 6HR MAX TEMP:  79;

MANHATTAN      PTSUNNY   78  54  43 SW20G28   30.01F
6HR MIN TEMP:  62; 6HR MAX TEMP:  80;

OLATHE IND     PTSUNNY   75  53  46 S17       30.08F
6HR MIN TEMP:  54; 6HR MAX TEMP:  75;

OLATHE EXE     PTSUNNY   73  53  49 S13G23    30.08F
6HR MIN TEMP:  53; 6HR MAX TEMP:  73;

SALINA         CLOUDY    73  54  51 S16G25    30.03F
TOPEKA BILLARD MOSUNNY   79  54  41 S13G24    30.04F
6HR MIN TEMP:  60; 6HR MAX TEMP:  80;

TOPEKA FORBES  MOSUNNY   78  53  41 S20       30.04F
6HR MIN TEMP:  57; 6HR MAX TEMP:  78;

$$



USA.gov is the U.S. government's official web portal to all federal, state and local government web resources and services.